Temperature
24 23 23 23 23 24 24 24 23 24 24 23 22 22 22 21 21 20 20 20 20 20 21 20 20 20 20 19 19 19 19 18 18 18 18 18 18 18 18 18 18 18 18 18
23 23 24 24 24 24 24 24 23 23 24 23 22 22 22 21 21 21 20 20 20 20 20 20 20 20 19 19 19 19 19 18 18 18 18 18 18 18 18 18 18 18 18 18
24 24 25 25 25 24 24 23 23 23 23 22 23 22 21 21 21 21 21 21 21 21 20 20 20 20 20 19 19 19 19 19 18 18 18 18 18 18 18 18 18 18 18 18
24 25 25 25 25 25 24 24 24 24 22 21 22 21 21 20 20 20 20 20 20 20 20 20 20 20 20 20 19 19 19 19 18 18 18 18 18 18 18 18 18 18 18 18
24 25 26 25 25 25 24 24 23 23 21 21 21 21 20 20 20 20 20 20 20 21 21 20 20 20 20 20 20 19 19 19 18 18 18 18 18 18 18 18 18 18 18 18
24 25 25 25 25 25 24 23 21 19 19 21 21 20 20 19 20 20 20 20 21 21 21 21 21 20 20 20 20 19 19 19 18 18 18 18 18 18 18 18 18 18 18 18
24 25 25 25 25 24 23 21 21 21 19 20 20 20 20 21 20 20 20 20 20 21 21 21 20 20 20 20 19 19 19 19 18 18 18 18 18 18 18 18 18 17 18 18
24 23 25 25 25 24 23 21 21 21 20 20 20 20 20 21 21 21 21 20 20 20 20 20 20 20 20 20 20 19 19 19 18 18 18 18 18 18 18 18 17 17 17 17
22 23 25 25 24 24 22 20 20 19 19 19 19 20 20 21 20 20 20 20 20 20 20 20 20 20 20 20 20 19 19 19 19 18 18 18 18 18 18 18 17 17 17 17
22 24 24 24 24 22 22 19 18 18 20 20 20 20 20 20 20 19 19 19 19 20 20 20 20 20 20 20 20 19 19 19 19 18 18 18 18 18 18 18 17 17 17 17
22 22 23 23 23 23 22 20 17 16 18 19 20 20 21 20 20 19 19 19 19 19 20 20 20 20 20 20 19 19 19 18 18 18 18 18 18 18 17 17 17 17 17 17
20 19 20 22 22 22 22 20 18 20 19 17 18 19 21 20 19 19 19 19 20 20 20 19 19 19 19 19 19 19 19 18 18 18 18 18 18 17 17 17 17 17 16 16
20 19 20 22 22 22 22 20 18 17 16 16 18 20 20 19 19 19 19 19 19 19 19 19 19 19 19 19 19 18 18 18 18 18 18 17 17 17 17 17 17 17 16 16
20 18 20 21 21 21 22 21 19 18 18 18 18 20 19 19 18 18 19 19 19 19 19 19 19 19 19 18 18 18 18 18 18 17 17 17 17 17 17 17 16 16 16 16
19 19 20 20 21 22 22 22 20 20 19 19 20 19 19 18 18 18 18 19 19 19 19 19 18 18 18 18 18 18 18 17 17 17 17 17 17 16 16 16 16 16 16 15
17 19 20 21 21 21 22 21 21 20 20 19 19 19 18 18 18 18 18 18 18 19 19 19 19 18 18 18 18 17 17 17 17 17 16 16 16 16 16 16 16 15 15 15
16 18 19 19 20 22 21 21 20 20 19 19 19 19 17 17 17 17 18 18 18 18 19 18 18 18 18 18 17 17 17 17 17 16 16 16 16 16 15 15 15 15 15 15
16 16 15 17 20 21 20 20 20 20 19 18 18 17 17 17 18 18 19 19 19 18 18 18 18 18 18 18 17 17 17 16 16 16 16 16 15 15 15 15 15 15 14 14
15 15 15 16 18 19 20 20 19 20 19 18 17 17 17 17 17 17 18 19 19 18 18 18 18 18 18 17 17 17 16 16 16 16 16 15 15 15 15 14 14 14 14 14
14 14 15 16 19 19 20 20 20 19 19 18 17 17 17 17 16 17 18 18 18 18 18 18 17 17 17 17 16 16 16 16 16 16 15 15 15 14 14 14 14 14 14 14
16 15 15 16 18 18 19 19 20 20 19 18 18 17 17 17 17 18 18 18 18 17 17 17 17 17 16 16 16 16 15 15 15 15 15 15 14 14 14 14 14 14 14 13
16 15 15 14 17 18 18 18 18 18 19 18 18 18 18 18 18 18 18 18 17 17 17 16 16 16 16 15 15 15 15 15 15 15 14 14 14 14 13 14 14 13 13 13
14 14 14 15 16 17 17 18 19 19 18 18 18 18 18 18 18 18 17 17 17 16 16 16 16 15 15 15 15 15 15 14 14 14 14 14 14 14 13 13 13 13 13 13
14 13 13 14 15 16 18 18 19 19 19 19 19 19 18 18 18 17 17 17 16 16 16 15 15 15 15 14 14 14 14 14 14 14 14 14 14 14 13 13 13 13 13 12
14 14 13 14 15 16 18 18 19 19 19 19 19 18 18 18 17 17 16 16 16 15 15 15 15 15 15 14 14 14 14 14 13 13 13 13 13 13 13 13 13 12 12 12
13 14 14 15 16 15 17 18 18 18 18 18 18 18 17 18 17 17 16 16 16 15 15 15 15 15 14 14 14 14 13 13 13 13 13 13 13 13 13 12 12 12 12 12
Wind_Speed
3 4 1 5 6 5 3 2 2 4 2 1 1 1 3 6 5 5 5 5 6 6 4 3 4 4 4 3 3 3 2 2 1 1 1 1 1 0 1 1 1 1 1 2
5 2 6 3 3 3 3 1 1 3 3 2 1 2 2 5 7 7 7 7 7 5 3 4 4 4 4 5 4 4 3 2 2 1 1 1 1 1 0 1 1 1 0 1
4 5 2 4 3 2 2 4 4 3 3 5 3 4 2 2 2 3 4 5 5 6 6 6 5 5 5 5 6 5 5 4 3 2 2 2 2 2 2 2 2 2 1 0
3 4 2 2 3 4 4 4 5 3 3 1 2 2 5 3 2 3 4 4 5 5 5 5 6 5 6 6 5 4 4 4 3 3 3 3 2 1 1 0 0 1 1 1
4 2 2 2 4 5 4 2 3 3 4 2 3 1 7 2 3 5 5 5 5 5 5 6 6 6 4 4 4 4 4 4 3 3 3 3 2 1 0 0 1 1 1 1
4 2 2 3 0 4 5 7 7 6 5 1 2 2 6 3 5 5 4 5 5 5 4 4 3 3 3 3 4 4 4 3 3 3 3 3 3 2 1 0 0 1 1 1
4 4 2 1 2 3 5 6 4 5 4 4 2 2 7 5 4 4 4 4 4 4 4 3 3 3 4 4 4 4 5 3 3 3 3 3 3 3 2 2 1 0 1 1
1 4 3 1 4 4 3 7 7 4 4 4 2 4 6 4 2 1 2 3 3 3 3 3 3 4 4 5 5 5 5 4 3 3 2 2 2 2 1 1 1 1 1 1
5 5 4 1 1 7 5 3 5 7 2 1 5 6 6 1 1 1 2 3 3 3 4 3 3 3 3 4 5 5 5 4 3 2 2 2 2 2 1 1 1 1 1 1
7 3 4 2 4 5 5 8 6 5 4 2 5 4 5 5 3 2 2 3 3 3 3 3 3 3 3 4 4 4 4 4 3 3 2 2 1 1 1 1 1 0 1 0
5 4 3 3 1 3 4 4 6 5 5 5 3 7 5 7 6 5 5 4 4 4 4 3 2 2 2 3 3 3 4 4 3 3 3 2 1 1 1 1 0 0 0 0
4 5 1 4 4 2 4 6 7 5 3 4 4 7 5 4 4 4 3 2 2 2 3 3 2 2 3 3 3 3 3 3 3 3 3 2 2 1 1 1 1 1 1 1
5 6 2 5 5 3 3 3 4 6 5 5 4 7 3 2 1 1 2 2 2 2 2 2 3 3 2 2 2 2 3 3 3 3 3 2 2 2 2 2 2 1 1 1
5 5 6 8 7 4 2 2 4 6 4 4 7 7 5 2 1 1 0 2 2 2 2 3 2 2 2 2 2 1 1 2 2 2 2 2 2 3 3 2 2 2 2 1
5 4 4 4 4 3 3 3 5 5 6 7 7 7 8 6 4 3 2 3 2 1 2 3 3 2 1 1 1 1 1 1 2 2 2 2 2 1 1 1 1 1 1 1
4 4 2 1 2 1 1 1 3 3 3 3 3 5 4 1 2 2 2 3 3 2 3 3 3 2 2 1 1 0 0 1 2 2 2 1 1 1 1 0 0 1 0 0
2 5 3 2 4 3 1 3 2 2 2 4 5 6 1 1 2 3 3 3 3 3 3 3 3 3 3 2 2 2 1 1 1 1 1 1 1 1 0 0 1 1 0 0
6 5 4 2 3 2 6 3 3 3 1 2 2 2 3 3 2 1 2 4 4 3 2 2 2 2 2 2 2 1 1 1 2 1 1 1 1 1 1 0 0 0 0 0
4 7 5 4 2 4 5 2 2 3 2 1 2 2 2 3 3 2 1 2 3 3 2 2 1 1 1 1 1 2 1 1 1 1 2 1 1 1 1 1 2 2 1 1
6 5 6 4 4 6 6 3 1 3 2 2 3 4 4 4 1 3 1 2 3 2 2 2 2 2 1 0 1 2 1 1 2 3 2 2 2 2 2 3 2 1 1 1
4 4 4 4 3 6 5 3 1 3 6 3 4 4 5 4 4 2 2 2 2 2 2 2 2 1 1 1 3 2 2 3 3 3 2 1 2 2 2 2 1 1 1 0
4 3 3 4 3 6 3 2 3 5 1 2 3 3 4 3 2 3 2 2 3 3 2 2 2 0 1 1 2 2 3 4 2 1 1 1 2 2 1 1 1 1 1 1
4 5 5 6 6 5 3 4 3 2 2 2 3 2 4 3 3 3 2 3 3 3 2 1 1 0 1 1 2 3 4 2 2 2 2 2 1 1 1 2 2 1 1 1
2 2 3 2 4 4 3 2 1 1 2 2 3 4 4 4 4 3 2 2 2 2 2 1 1 0 2 2 2 3 3 2 2 2 2 1 1 1 0 1 1 2 1 1
4 3 2 2 4 3 4 2 1 1 2 2 2 3 5 6 4 3 2 2 2 1 1 1 1 2 3 3 2 3 3 2 2 1 1 1 1 1 1 1 1 1 1 2
5 6 6 6 6 5 5 4 2 1 1 2 3 2 3 4 4 3 3 2 2 2 1 1 1 2 3 2 2 3 2 2 3 2 1 1 1 1 1 1 0 1 0 1
Wind_Direction
47 72 208 219 194 183 169 166 246 278 295 92 160 225 204 186 190 191 193 197 199 210 207 185 192 187 173 175 181 190 192 192 129 97 122 147 161 49 19 322 302 274 244 219
42 286 243 194 169 159 159 169 267 318 15 84 72 325 257 196 207 202 198 203 205 206 198 194 193 187 188 195 198 197 198 188 175 160 151 141 129 108 102 4 5 337 288 217
180 243 210 147 163 150 241 195 213 208 31 39 56 350 315 285 230 207 201 202 200 200 206 206 205 204 202 205 205 206 202 194 188 162 115 92 74 47 31 21 9 350 356 353
226 254 185 172 217 173 261 236 189 162 106 349 47 292 288 273 277 226 215 204 207 207 205 204 207 211 212 213 206 202 197 193 191 169 153 150 154 187 249 236 325 349 351 340
244 225 194 220 229 174 207 77 96 105 120 62 22 145 290 330 282 257 228 206 205 201 199 204 206 206 212 204 191 180 174 186 189 179 174 165 179 199 219 56 16 355 358 350
249 254 217 214 206 143 134 70 55 51 71 28 273 167 280 260 248 264 233 208 199 194 187 198 197 179 195 193 180 162 158 177 185 178 180 181 185 184 164 174 323 338 356 359
334 326 303 153 85 45 91 89 36 4 7 261 280 196 253 261 240 227 223 206 189 180 180 182 166 172 184 179 176 162 159 170 168 160 171 181 180 179 186 201 198 273 343 331
157 293 272 198 169 167 145 133 153 193 228 276 323 245 258 273 263 201 170 167 149 157 168 179 184 184 185 177 170 165 167 176 170 160 164 146 142 159 183 187 178 181 231 275
175 250 291 272 139 133 133 137 152 131 132 312 287 288 302 301 359 79 129 138 162 179 179 186 187 184 180 177 174 171 167 167 163 162 152 126 132 151 170 179 179 205 233 249
160 222 298 302 72 45 123 139 100 114 146 254 294 280 257 258 258 250 197 191 198 189 186 183 186 188 188 180 172 168 170 171 162 149 151 150 144 162 153 128 118 175 289 272
137 156 313 21 140 184 102 97 103 112 146 158 246 271 229 217 215 216 221 213 200 188 189 188 192 182 158 137 145 154 162 158 150 153 156 152 162 170 135 133 180 242 310 279
132 125 245 275 277 204 146 155 146 153 201 171 185 265 282 215 203 198 206 196 182 179 181 175 165 142 128 125 134 144 151 162 172 168 160 168 163 154 183 217 231 221 248 248
132 114 71 346 347 12 90 123 134 124 118 152 179 262 321 55 84 202 174 153 141 141 139 129 127 124 125 127 132 150 162 173 175 164 169 171 173 194 219 235 239 233 236 242
117 116 163 195 218 209 196 170 154 132 146 197 222 246 288 294 259 284 148 148 141 137 142 136 135 139 133 123 116 129 159 166 162 164 181 190 208 219 227 229 228 232 223 216
103 147 193 226 238 200 207 205 179 181 186 191 231 227 251 242 217 212 176 148 125 119 137 146 151 153 136 128 116 116 118 129 144 154 181 217 225 226 228 232 233 224 199 206
80 135 138 331 326 212 214 284 187 198 186 211 240 256 261 239 121 112 145 157 168 179 167 156 152 146 163 178 178 155 153 146 142 153 186 215 199 215 233 238 99 90 110 147
107 124 118 248 317 37 300 263 187 182 202 182 214 242 232 134 175 189 185 180 193 186 175 169 173 175 180 189 187 193 205 161 131 129 168 187 169 153 244 107 74 64 32 73
136 118 124 125 63 231 249 272 175 144 270 241 219 197 176 176 186 194 185 171 174 190 195 193 176 169 167 163 168 167 151 151 146 155 222 214 213 231 264 152 147 288 318 293
139 133 119 122 163 276 294 276 168 156 293 297 162 155 113 109 70 7 264 177 173 175 174 183 176 158 144 154 151 123 126 158 162 212 233 225 214 232 243 246 254 259 260 285
62 91 114 126 154 222 246 275 245 110 278 251 169 167 152 116 107 269 248 151 146 144 144 140 108 94 99 160 141 136 187 222 247 247 241 231 213 213 221 227 234 246 233 252
45 53 108 149 193 250 260 287 78 153 245 217 181 173 163 176 200 214 167 151 150 141 130 108 96 97 180 165 153 172 210 242 254 253 247 244 231 221 222 219 214 197 182 133
165 145 163 145 179 251 296 119 175 222 254 161 179 181 170 167 140 127 137 139 129 115 100 101 112 295 272 165 163 192 234 254 259 245 234 247 247 227 204 190 212 206 179 178
187 189 183 184 210 249 269 235 247 178 168 195 183 182 154 151 159 153 158 155 141 128 122 112 137 263 299 237 185 210 248 249 222 213 230 248 243 227 201 188 196 175 153 177
255 149 140 237 268 277 289 295 278 197 188 182 168 163 157 165 169 161 152 149 137 128 128 123 111 343 299 290 253 235 244 221 199 214 237 252 253 261 203 173 173 165 180 212
216 159 150 250 271 307 311 302 281 353 59 93 117 154 165 159 163 163 160 168 160 149 150 149 178 243 267 282 280 262 244 202 197 222 227 226 229 226 221 208 195 194 205 199
203 184 181 222 221 200 245 265 260 154 159 157 140 129 148 155 162 157 164 178 165 166 180 193 227 257 279 288 289 278 246 200 190 207 215 210 207 207 209 215 293 5 198 119
Height
1500 1507 1512 1510 1508 1510 1513 1517 1520 1515 1508 1511 1515 1515 1513 1512 1514 1515 1516 1517 1518 1518 1520 1521 1522 1523 1523 1524 1524 1525 1525 1525 1525 1524 1524 1525 1526 1527 1528 1529 1530 1530 1530 1530
1507 1510 1504 1503 1505 1508 1511 1517 1519 1515 1509 1512 1516 1516 1512 1512 1512 1513 1514 1516 1516 1517 1519 1519 1520 1522 1522 1523 1524 1524 1525 1525 1525 1525 1525 1526 1527 1528 1529 1529 1530 1530 1530 1531
1508 1505 1499 1502 1506 1510 1512 1516 1516 1517 1514 1514 1517 1521 1516 1512 1512 1513 1514 1515 1515 1516 1517 1518 1519 1520 1521 1522 1523 1523 1524 1525 1525 1526 1526 1527 1528 1528 1529 1530 1530 1530 1530 1530
1504 1500 1500 1503 1505 1507 1515 1506 1508 1512 1521 1529 1525 1538 1521 1515 1513 1512 1512 1513 1514 1515 1516 1517 1518 1519 1520 1521 1522 1523 1524 1524 1525 1526 1527 1527 1528 1528 1529 1530 1530 1531 1531 1531
1504 1499 1500 1503 1502 1502 1507 1503 1508 1514 1522 1531 1530 1537 1529 1518 1516 1512 1510 1510 1511 1513 1514 1515 1516 1518 1519 1521 1522 1522 1522 1523 1525 1526 1527 1528 1528 1529 1529 1530 1530 1530 1530 1530
1500 1497 1497 1498 1497 1499 1502 1509 1515 1523 1531 1543 1534 1538 1534 1521 1515 1509 1507 1508 1509 1511 1512 1514 1515 1517 1519 1520 1521 1521 1522 1523 1524 1525 1526 1527 1528 1528 1529 1529 1529 1530 1530 1530
1505 1499 1496 1495 1500 1502 1505 1522 1541 1544 1551 1547 1534 1536 1531 1512 1507 1506 1506 1506 1507 1509 1511 1512 1514 1516 1517 1518 1519 1520 1521 1522 1524 1525 1525 1526 1527 1528 1528 1528 1529 1529 1529 1529
1515 1515 1498 1495 1498 1505 1509 1518 1541 1551 1554 1547 1536 1536 1521 1507 1505 1504 1505 1506 1507 1508 1509 1511 1512 1514 1515 1516 1517 1519 1520 1522 1523 1524 1525 1526 1526 1527 1527 1528 1528 1528 1528 1528
1515 1513 1496 1494 1494 1499 1511 1519 1521 1538 1544 1549 1541 1529 1515 1506 1505 1505 1505 1505 1506 1507 1508 1510 1511 1513 1514 1515 1516 1517 1519 1521 1522 1523 1524 1525 1525 1525 1526 1526 1527 1527 1527 1527
1502 1510 1500 1496 1495 1500 1503 1514 1527 1538 1550 1552 1541 1534 1526 1511 1507 1505 1505 1505 1505 1506 1507 1508 1510 1511 1512 1514 1515 1516 1518 1520 1521 1522 1523 1524 1524 1525 1524 1524 1525 1525 1525 1525
1498 1510 1507 1502 1503 1506 1509 1516 1525 1537 1539 1549 1549 1536 1508 1506 1504 1504 1504 1503 1504 1505 1506 1507 1509 1510 1512 1513 1514 1516 1517 1518 1520 1520 1521 1522 1522 1523 1523 1522 1523 1523 1523 1523
1499 1510 1518 1509 1500 1498 1501 1509 1520 1530 1537 1542 1544 1532 1500 1500 1500 1501 1502 1502 1503 1504 1506 1507 1508 1510 1511 1512 1513 1515 1516 1517 1518 1519 1520 1520 1520 1521 1521 1520 1521 1521 1521 1521
1498 1511 1524 1521 1514 1505 1505 1508 1514 1522 1534 1542 1541 1526 1500 1499 1500 1500 1501 1502 1503 1504 1505 1506 1508 1509 1511 1512 1513 1514 1515 1516 1517 1517 1518 1518 1518 1519 1519 1518 1519 1519 1519 1519
1492 1508 1518 1524 1518 1508 1507 1508 1512 1517 1530 1534 1528 1517 1505 1502 1501 1501 1501 1502 1503 1504 1505 1506 1507 1509 1510 1512 1513 1513 1514 1515 1515 1516 1516 1516 1516 1516 1516 1517 1517 1516 1516 1516
1493 1507 1507 1506 1503 1502 1503 1504 1507 1510 1514 1520 1514 1513 1505 1501 1500 1500 1501 1501 1503 1503 1504 1506 1507 1509 1510 1511 1512 1513 1513 1514 1514 1515 1515 1514 1514 1514 1514 1514 1514 1514 1514 1514
1496 1504 1505 1506 1502 1502 1504 1503 1504 1505 1507 1509 1509 1508 1500 1499 1500 1500 1501 1502 1502 1503 1504 1505 1507 1508 1509 1510 1511 1512 1513 1513 1513 1513 1513 1513 1513 1513 1512 1512 1511 1511 1511 1511
1501 1505 1512 1515 1508 1504 1512 1505 1503 1504 1503 1505 1507 1503 1499 1500 1500 1500 1501 1502 1503 1503 1504 1505 1506 1507 1508 1509 1510 1511 1511 1512 1512 1512 1512 1512 1511 1511 1510 1509 1509 1508 1508 1508
1500 1507 1516 1519 1513 1521 1510 1498 1497 1500 1500 1499 1498 1498 1498 1498 1499 1500 1501 1501 1502 1504 1505 1505 1506 1507 1507 1508 1509 1509 1510 1510 1510 1510 1510 1510 1509 1508 1508 1507 1506 1506 1506 1505
1495 1504 1516 1523 1523 1517 1504 1497 1497 1500 1501 1497 1498 1498 1498 1499 1499 1500 1501 1501 1502 1503 1505 1505 1506 1506 1507 1507 1508 1508 1508 1508 1508 1508 1508 1507 1507 1506 1505 1505 1504 1504 1503 1503
1497 1501 1513 1521 1521 1523 1506 1495 1494 1497 1503 1497 1496 1497 1497 1498 1503 1502 1500 1500 1501 1503 1504 1504 1505 1505 1506 1506 1507 1507 1507 1507 1506 1506 1506 1505 1505 1504 1504 1503 1502 1502 1501 1501
1505 1509 1514 1518 1518 1511 1498 1494 1494 1507 1504 1494 1494 1495 1496 1497 1499 1500 1499 1500 1501 1502 1503 1503 1504 1504 1504 1505 1505 1505 1505 1505 1505 1505 1504 1504 1503 1503 1502 1501 1501 1500 1500 1499
1507 1511 1515 1519 1518 1513 1495 1494 1498 1497 1492 1492 1493 1494 1495 1496 1497 1498 1499 1499 1500 1501 1502 1502 1503 1503 1503 1504 1503 1503 1502 1503 1504 1503 1502 1501 1501 1501 1500 1500 1499 1499 1498 1497
1504 1504 1505 1507 1507 1497 1494 1493 1493 1492 1492 1492 1493 1494 1495 1495 1496 1497 1498 1498 1499 1500 1501 1502 1502 1502 1502 1502 1501 1501 1501 1501 1501 1501 1500 1500 1499 1499 1498 1498 1497 1497 1496 1495
1499 1498 1500 1501 1496 1493 1492 1491 1491 1491 1491 1491 1492 1493 1494 1495 1496 1497 1497 1498 1498 1499 1500 1501 1501 1501 1500 1500 1499 1499 1499 1499 1499 1498 1498 1498 1497 1497 1497 1496 1496 1495 1494 1493
1496 1497 1499 1498 1494 1492 1490 1490 1490 1491 1491 1491 1492 1493 1493 1494 1495 1496 1496 1497 1498 1499 1499 1500 1500 1499 1499 1498 1497 1497 1497 1497 1496 1496 1495 1495 1495 1495 1495 1494 1494 1493 1493 1492
1492 1493 1495 1494 1490 1491 1490 1489 1490 1490 1490 1491 1491 1492 1492 1493 1494 1495 1496 1497 1497 1498 1498 1498 1498 1497 1496 1495 1494 1494 1494 1494 1494 1493 1493 1493 1493 1493 1493 1492 1492 1492 1491 1491